User: anonymous   Login
Location: Unspecified
(0.0000°N, 0.0000°E)
Time: 03:44:12
(UTC+00:00)
Language:

M-CUBED/EXP-1 PRIME - Orbit

View from above orbital plane
View from above orbital plane
View from above satellite
View from above satellite

Ground track
Ground track

The orbit data is extracted from the following two-line orbital elements,

1 37855U 11061F   18017.88065727  .00000574  00000-0  37720-4 0  9996
2 37855 101.7228   3.5093 0177908 166.8657 193.7276 15.03987783339058
Epoch (UTC): 17 January 2018 21:08:08
Eccentricity: 0.0177908
inclination: 101.7228°
perigee height: 431 km
apogee height: 678 km
right ascension of ascending node: 3.5093°
argument of perigee: 166.8657°
revolutions per day: 15.03987783
mean anomaly at epoch: 193.7276°
orbit number at epoch: 33905

The dashed part of the orbit path shows where the satellite is in the earth's shadow,  

DLR